Location: Ceske Budejovice
(48.9830°N, 14.4670°E)
Time: 10:03:26
(UTC+02:00)

ISS - Pass Details

Date: 01 May 2024
Orbit: 409 x 414 km, 51.6° (Epoch: 21 May)

Event Time Altitude Azimuth Distance (km) Brightness Sun altitude
Exits shadow 03:03:05 65° 105° (ESE) 457 -3.6 -20.2°
Drops below altitude 10° 03:06:02 10° 72° (ENE) 1,480 -0.3 -20.0°
Sets 03:08:08 0° 70° (ENE) 2,342 0.9 -19.8°
